User: anonymous   Login
Location: Caltech
(34.1382°N, 118.1253°W)
Time: 14:11:32
(UTC-08:00)
Language:

SL-16 R/B - Orbit

View from above orbital plane
View from above orbital plane
View from above satellite
View from above satellite

Ground track
Ground track

The orbit data is extracted from the following two-line orbital elements,

1 31793U 07029B   17055.49138828  .00000225  00000-0  14282-3 0  9991
2 31793  70.9731 265.8817 0002342 270.9550 143.8600 14.14372717498783
Epoch (UTC): 24 February 2017 11:47:35
Eccentricity: 0.0002342
inclination: 70.9731°
perigee height: 843 km
apogee height: 846 km
right ascension of ascending node: 265.8817°
argument of perigee: 270.9550°
revolutions per day: 14.14372717
mean anomaly at epoch: 143.8600°
orbit number at epoch: 49878

The dashed part of the orbit path shows where the satellite is in the earth's shadow,  

DLR